Location: Austin
(30.3000°N, 97.7500°W)
Time: 00:57:56
(UTC-06:00)

USA 281 - Pass Details

Date: 04 November 2025
Orbit: 1076 x 1082 km, 106.0° (Epoch: 13 November)

Event Time Altitude Azimuth Distance (km) Brightness Sun altitude
Exits shadow 20:23:34 59° 303° (WNW) 1,237 3.6 -35.5°
Drops below altitude 10° 20:28:58 10° 334° (NNW) 2,924 5.7 -36.6°
Sets 20:31:31 0° 336° (NNW) 3,883 6.4 -37.2°
